DMSP 5D-2 F13 DEB

基本信息
目录编号:
42276
目录名称:
DMSP 5D-2 F13 DEB
国际标识:
1995-015GS
轨道中心:
EARTH
物体状态:
在轨
发射日期:
1995-03-24 UTC
轨道信息
数据来源: 国际轨道数据
星历时间: 2026-06-23T20:05:35+0800
半长轴: 7295.285km
偏心率: 0.0115179
轨道倾角: 99.081°
近地点辐角: 90.088°
升交点赤经: 93.986°
平近点角: 271.348°
近地点: 833.121km
远地点: 1001.175km
周期: 103.353分钟
每日圈数: 13.932833
详细信息
发射场:
AFWTR
轨道高度:
LEO
数据来源:
AOE Integration Group
参考系:
TEME
时间系统:
UTC
历元类型:
SGP4
2D轨道图
3D轨道图
轨道高度分析图
轨道倾角分析图
轨道综合分析图
查看轨道综合分析图